Regional Weather Roundup
Issued by NWS

Home | Current Version | Previous Version | Graphics & Text | Print | Product List | Glossary On
Versions: 1 2 3 4 5 6 7 8 9 10 11 12 13 14 15 16 17 18 19 20 21 22 23 24 25 26 27 28 29 30 31 32 33 34 35 36 37 38 39 40 41 42 43 44 45 46 47 48 49 50
293
ASUS43 KIND 061059
RWRIN

WEATHER ROUNDUP FOR INDIANA
NATIONAL WEATHER SERVICE INDIANAPOLIS IN
600 AM EST SAT FEB 06 2016

NOTE: "FAIR" INDICATES FEW OR NO CLOUDS BELOW 12,000 FEET WITH NO
SIGNIFICANT WEATHER AND/OR OBSTRUCTIONS TO VISIBILITY.

* - STATION DOES NOT REPORT WEATHER SUCH AS PRECIPITATION OR FOG.

+ - STATION NOT QUALITY CONTROLLED BY THE NATIONAL WEATHER SERVICE.
    USE DATA WITH CAUTION...ESPECIALLY DEWPOINT AND RELATIVE
    HUMIDITY OBSERVATIONS.

INZ001>003-010>013-019-020-061200-
NORTHWEST INDIANA

CITY           SKY/WX    TMP DP  RH WIND       PRES   REMARKS
GARY /AIRPORT/ MOCLDY    27  21  80 SW5       30.30S WCI  21
RENSSELAER +   CLEAR     23  19  86 CALM      30.30S

$$

LMZ046-743>745-061200-
SOUTHERN LAKE MICHIGAN

STATION/POSITION TIME  TEMP    WIND        PRES    WAVE
                       AIR SEA DIR/SP/G            HT
                 (UTC) (F)     (DEG/KT/KT) (MB)    (FT)
BURNS HARBOR     1000   26     200/ 10/ 13 1026.1F
MICHIGAN CITY    1000   25     170/  7/  8   N/A

$$

INZ004-005-014>016-021>024-061200-
NORTH CENTRAL INDIANA

CITY           SKY/WX    TMP DP  RH WIND       PRES   REMARKS
GOSHEN         CLEAR     23  20  88 S3        30.29S FOG
PERU/GRISSOM   CLEAR     21  19  93 S6        30.29S WCI  14
SOUTH BEND     CLOUDY    21  19  92 CALM      30.30R FOG

$$

INZ006>009-017-018-025>027-061200-
NORTHEAST INDIANA

CITY           SKY/WX    TMP DP  RH WIND       PRES   REMARKS
ANGOLA *+      CLEAR     19  19 100 CALM      30.27S
FORT WAYNE     PTCLDY    24  22  91 S7        30.30F FOG     WCI  16

$$

INZ028-029-035-036-043>045-051>053-061200-
WEST CENTRAL INDIANA

CITY           SKY/WX    TMP DP  RH WIND       PRES   REMARKS
GREENCASTLE +  PTCLDY    19  14  79 CALM      30.33S HAZE
LAFAYETTE      CLEAR     19  18  95 CALM      30.32F
TERRE HAUTE    CLOUDY    21  19  92 CALM      30.34S

$$

INZ030>032-037>040-046>048-054>057-064-065-061200-
CENTRAL INDIANA

CITY           SKY/WX    TMP DP  RH WIND       PRES   REMARKS
GREENWOOD *+   CLEAR     23  21  93 CALM      30.34S
INDIANAPOLIS   CLEAR     22  18  85 S5        30.32S WCI  16
-EAGLE CREEK   CLEAR     20  18  92 CALM      30.32F
KOKOMO *+      CLEAR     21  16  79 S6        30.31S WCI  14
MT COMFORT *+  PTCLDY    21  21 100 S3        30.33F
SHELBYVILLE    CLOUDY    23  19  85 CALM      30.33S FOG

$$

INZ033-034-041-042-049-050-058-059-061200-
EAST CENTRAL INDIANA

CITY           SKY/WX    TMP DP  RH WIND       PRES   REMARKS
MUNCIE         CLEAR     23  19  85 SW3       30.31F FOG

$$

INZ060-061-067>069-081>083-085>088-061200-
SOUTHWEST INDIANA

CITY           SKY/WX    TMP DP  RH WIND       PRES   REMARKS
EVANSVILLE     CLOUDY    29  23  78 CALM      30.35S
HUNTINGBURG *+ PTCLDY    25  19  80 NE3       30.35S

$$

INZ062-063-066-070>080-084-089>092-061200-
SOUTH CENTRAL AND SOUTHEAST INDIANA

CITY           SKY/WX    TMP DP  RH WIND       PRES   REMARKS
BLOOMINGTON    CLOUDY    21  17  84 CALM      30.33S
MADISON *+     CLEAR     27  23  86 CALM      30.36S
SEYMOUR +      PTCLDY    25  23  93 CALM      30.35S FOG

$$





USA.gov is the U.S. government's official web portal to all federal, state and local government web resources and services.